TimeCET,TemperatureF,Dew PointF,Humidity,Sea Level PressureIn,VisibilityMPH,Wind Direction,Wind SpeedMPH,Gust SpeedMPH,PrecipitationIn,Events,Conditions,WindDirDegrees,DateUTC
12:15 AM,32.0,30.2,93,29.98,3.7,NNW,4.5,-,N/A,,Unknown,340,2013-01-06 23:15:00
12:45 AM,32.0,30.2,93,30.01,3.7,NNW,4.5,-,N/A,,Unknown,340,2013-01-06 23:45:00
1:15 AM,32.0,28.4,87,30.01,-9999.0,North,6.7,-,N/A,,Clear,360,2013-01-07 00:15:00
1:45 AM,30.2,26.6,86,30.01,-9999.0,North,6.7,-,N/A,,Clear,360,2013-01-07 00:45:00
2:15 AM,32.0,26.6,80,30.04,-9999.0,NE,15.7,-,N/A,,Clear,40,2013-01-07 01:15:00
2:45 AM,32.0,24.8,75,30.04,-9999.0,NE,13.4,-,N/A,,Clear,40,2013-01-07 01:45:00
3:15 AM,32.0,23.0,69,30.04,-9999.0,NNE,11.2,-,N/A,,Clear,30,2013-01-07 02:15:00
3:45 AM,30.2,23.0,75,30.06,-9999.0,NNE,13.4,-,N/A,,Clear,30,2013-01-07 02:45:00
4:15 AM,30.2,21.2,69,30.06,-9999.0,NNE,8.9,-,N/A,,Clear,30,2013-01-07 03:15:00
4:45 AM,28.4,21.2,74,30.06,-9999.0,NNE,8.9,-,N/A,,Clear,20,2013-01-07 03:45:00
5:15 AM,30.2,23.0,75,30.09,-9999.0,NNE,11.2,-,N/A,,Clear,20,2013-01-07 04:15:00
5:45 AM,-9999,-9999,N/A,-9999,6.2,NNE,11.2,-,N/A,,Clear,20,2013-01-07 04:45:00
6:15 AM,30.2,21.2,69,30.12,-9999.0,NNE,11.2,-,N/A,,Clear,30,2013-01-07 05:15:00
6:45 AM,28.4,19.4,69,30.15,-9999.0,NNE,8.9,-,N/A,,Clear,20,2013-01-07 05:45:00
7:15 AM,28.4,19.4,69,30.15,-9999.0,NE,11.2,-,N/A,,Clear,40,2013-01-07 06:15:00
7:45 AM,28.4,17.6,64,30.15,-9999.0,NE,11.2,-,N/A,,Clear,40,2013-01-07 06:45:00
8:15 AM,28.4,17.6,64,30.18,-9999.0,NE,11.2,-,N/A,,Clear,40,2013-01-07 07:15:00
9:15 AM,30.2,17.6,60,30.21,-9999.0,NE,8.9,-,N/A,,Clear,40,2013-01-07 08:15:00
9:45 AM,32.0,19.4,60,30.21,-9999.0,NE,11.2,-,N/A,,Clear,40,2013-01-07 08:45:00
10:15 AM,32.0,19.4,60,30.24,6.2,NE,15.7,-,N/A,,Partly Cloudy,40,2013-01-07 09:15:00
10:31 AM,33.8,17.6,52,30.24,6.2,NE,17.9,-,N/A,,Partly Cloudy,40,2013-01-07 09:31:00
10:45 AM,33.8,17.6,52,30.24,6.2,NE,17.9,-,N/A,,Partly Cloudy,40,2013-01-07 09:45:00
11:15 AM,33.8,15.8,48,30.24,6.2,NNE,17.9,-,N/A,,Partly Cloudy,30,2013-01-07 10:15:00
11:45 AM,-9999,-9999,N/A,-9999,6.2,NNE,11.2,-,N/A,,Clear,20,2013-01-07 10:45:00
12:15 PM,33.8,19.4,56,30.24,6.2,NE,20.1,-,N/A,,Partly Cloudy,40,2013-01-07 11:15:00
1:15 PM,33.8,17.6,52,30.24,6.2,NNE,13.4,-,N/A,,Partly Cloudy,20,2013-01-07 12:15:00
1:45 PM,33.8,17.6,52,30.24,6.2,NNE,13.4,-,N/A,,Partly Cloudy,20,2013-01-07 12:45:00
2:15 PM,32.0,19.4,60,30.27,6.2,NE,13.4,-,N/A,,Partly Cloudy,40,2013-01-07 13:15:00
2:45 PM,-9999,-9999,N/A,-9999,-9999.0,NNE,11.2,-,N/A,,Clear,20,2013-01-07 13:45:00
3:15 PM,32.0,17.6,55,30.27,-9999.0,NE,13.4,-,N/A,,Clear,40,2013-01-07 14:15:00
3:45 PM,30.2,17.6,60,30.30,-9999.0,NE,13.4,-,N/A,,Clear,40,2013-01-07 14:45:00
4:15 PM,28.4,17.6,64,30.30,-9999.0,NE,8.9,-,N/A,,Clear,50,2013-01-07 15:15:00
4:45 PM,28.4,17.6,64,30.30,-9999.0,NE,8.9,-,N/A,,Clear,40,2013-01-07 15:45:00
5:15 PM,26.6,17.6,69,30.33,-9999.0,NE,8.9,-,N/A,,Clear,40,2013-01-07 16:15:00
5:45 PM,-9999,-9999,N/A,-9999,-9999.0,NNE,6.7,-,N/A,,Clear,20,2013-01-07 16:45:00
6:15 PM,26.6,17.6,69,30.33,-9999.0,NE,8.9,-,N/A,,Clear,40,2013-01-07 17:15:00
7:15 PM,24.8,17.6,74,30.36,-9999.0,ENE,6.7,-,N/A,,Clear,60,2013-01-07 18:15:00
7:45 PM,24.8,17.6,74,30.36,-9999.0,ENE,6.7,-,N/A,,Clear,60,2013-01-07 18:45:00
8:15 PM,24.8,15.8,69,30.36,-9999.0,ENE,8.9,-,N/A,,Clear,60,2013-01-07 19:15:00
8:45 PM,-9999,-9999,N/A,-9999,-9999.0,NE,6.7,-,N/A,,Clear,40,2013-01-07 19:45:00
9:15 PM,23.0,14.0,68,30.36,-9999.0,NNE,6.7,-,N/A,,Clear,20,2013-01-07 20:15:00
9:45 PM,23.0,14.0,68,30.39,-9999.0,NNE,4.5,-,N/A,,Clear,30,2013-01-07 20:45:00
10:15 PM,23.0,14.0,68,30.39,-9999.0,North,2.2,-,N/A,,Clear,360,2013-01-07 21:15:00
10:45 PM,21.2,12.2,68,30.39,-9999.0,North,2.2,-,N/A,,Clear,350,2013-01-07 21:45:00
11:15 PM,23.0,14.0,68,30.39,-9999.0,NNW,2.2,-,N/A,,Clear,330,2013-01-07 22:15:00
11:45 PM,23.0,14.0,68,30.39,-9999.0,NW,4.5,-,N/A,,Clear,320,2013-01-07 22:45:00